Regional Weather Roundup
Issued by NWS

Home | Current Version | Previous Version | Text Only | Print | Product List | Glossary On
Versions: 1 2 3 4 5 6 7 8 9 10 11 12 13 14 15 16 17 18 19 20 21 22 23 24 25 26 27 28 29 30 31 32 33 34 35 36 37 38 39 40 41 42 43 44 45 46 47 48 49 50
000
ASUS43 KMKX 231521
RWRWI

WISCONSIN REGIONAL WEATHER ROUNDUP
NATIONAL WEATHER SERVICE MILWAUKEE/SULLIVAN WI
1000 AM CDT TUE SEP 23 2014

NOTE: "FAIR" INDICATES FEW OR NO CLOUDS BELOW 12,000 FEET WITH NO
SIGNIFICANT WEATHER AND/OR OBSTRUCTIONS TO VISIBILITY.

WIZ001-002-006>008-014>016-023>028-231600-
NORTHWEST WISCONSIN

CITY           SKY/WX    TMP DP  RH WIND       PRES   REMARKS
SUPERIOR ARPT  SUNNY     59  53  80 SW6       30.22S
ASHLAND        SUNNY     64  53  67 SW7       30.24R
HAYWARD        SUNNY     62  53  72 SW3       30.25R
SIREN          SUNNY     62  53  72 S6        30.24R
CUMBERLAND     SUNNY     59  52  77 S3        30.26R
RICE LAKE      SUNNY     56  55  97 SE3       30.28R
CHETEK         SUNNY     58  53  85 CALM      30.27R
LADYSMITH      SUNNY     60  53  78 S3        30.29S
EAU CLAIRE     SUNNY     60  51  72 S5        30.27R
MENOMONIE      SUNNY     60  53  78 S3        30.27S
NEW RICHMOND   SUNNY     63  51  65 S6        30.24S
OSCEOLA        SUNNY     63  54  73 S6        30.26S
$$

WIZ003>005-009-010-017-018-231600-
NORTH CENTRAL WISCONSIN

CITY           SKY/WX    TMP DP  RH WIND       PRES   REMARKS
MANITOWISH WTR SUNNY     59  53  81 CALM      30.26S
ARBOR VITAE    SUNNY     62  54  74 CALM      30.27S
WOODRUFF       SUNNY     62  54  74 CALM      30.27S
RHINELANDER    SUNNY     62  52  69 SW7       30.28S
EAGLE RIVER    SUNNY     61  50  66 CALM      30.27S
LAND O LAKES   SUNNY     64  53  68 SW6       30.27S
PHILLIPS       SUNNY     60  53  77 CALM      30.27R
TOMAHAWK       SUNNY     59  52  78 CALM      30.29S
MEDFORD        SUNNY     62  51  68 SW5       30.29R
MERRILL        SUNNY     56  51  84 SW3       30.28S
$$

WIZ029-030-035-036-043>047-231600-
CENTRAL WISCONSIN

CITY           SKY/WX    TMP DP  RH WIND       PRES   REMARKS
WAUSAU         SUNNY     58  52  80 S5        30.28R
MOSINEE        NOT AVBL
MARSHFIELD     SUNNY     62  54  74 W3        30.29R
STEVENS POINT  SUNNY     60  50  71 SW5       30.30S
WAUPACA        SUNNY     63  56  78 S5        30.30S
WAUTOMA        SUNNY     63  53  69 CALM      30.31R
WISC RAPIDS    SUNNY     60  52  74 SW6       30.31R
CAMP DOUGLAS   SUNNY     63  61  94 SW6       30.31R
$$

WIZ011>013-019>022-031-037>040-048>050-231600-
NORTHEAST WISCONSIN

CITY           SKY/WX    TMP DP  RH WIND       PRES   REMARKS
ANTIGO         SUNNY     63  53  69 CALM      30.29S
SHAWANO        SUNNY     63  54  71 SW3       30.29S
OCONTO         SUNNY     63  54  73 W8        30.27S
STURGEON BAY   SUNNY     64  54  68 W10       30.29R
GREEN BAY      SUNNY     63  55  75 SW3       30.29S
MANITOWOC      SUNNY     65  54  67 W3        30.30R
APPLETON       SUNNY     61  54  77 VRB3      30.30R
CLINTONVILLE   SUNNY     61  54  77 CALM      30.29S
OSHKOSH        SUNNY     63  54  72 S3        30.30R
$$

WIZ032>034-041-042-053>061-231600-
SOUTHWEST WISCONSIN

CITY           SKY/WX    TMP DP  RH WIND       PRES   REMARKS
LA CROSSE      SUNNY     57  53  86 SE7       30.30R
SPARTA         SUNNY     59  51  75 CALM      30.31R
VIROQUA        SUNNY     63  52  68 S3        30.32R
BOSCOBEL       MOSUNNY   55  53  93 CALM      30.33S
PRAIRIE DU CHI SUNNY     58  53  83 CALM      30.32R
PLATTEVILLE    SUNNY     63  50  62 S6        30.34S
$$

WIZ056-057-062-063-064-067-068-231600-
SOUTH CENTRAL WISCONSIN

CITY           SKY/WX    TMP DP  RH WIND       PRES   REMARKS
REEDSBURG      SUNNY     61  54  77 CALM      30.31S
BARABOO/DELLS  SUNNY     63  50  61 SW3       30.31S
LONE ROCK      SUNNY     62  50  64 CALM      30.33R
MINERAL POINT  SUNNY     63  50  63 SW5       30.33S
MADISON        MOSUNNY   63  49  60 SW6       30.32R
MIDDLETON      SUNNY     66  49  53 W5        30.33R
WATERTOWN      SUNNY     62  53  71 SW3       30.32S
MONROE         SUNNY     63  48  59 SW7       30.33S
JANESVILLE     SUNNY     63  48  59 SW6       30.33R
$$

WIZ051-052-058>065-066-070>072-231600-
SOUTHEAST WISCONSIN

CITY           SKY/WX    TMP DP  RH WIND       PRES   REMARKS
MILWAUKEE      MOSUNNY   65  49  56 W6        30.32S
WAUKESHA       SUNNY     61  52  72 SW3       30.33S
MILWAUKEE/TIMM SUNNY     63  48  59 W6        30.33R
RACINE         SUNNY     64  49  57 W9        30.34R
BURLINGTON     SUNNY     63  48  57 SW5       30.33S
KENOSHA        SUNNY     63  50  62 W9        30.33S
FOND DU LAC    SUNNY     62  52  69 SW5       30.31R
SHEBOYGAN      SUNNY     65  54  67 VRB3      30.30R
WEST BEND      SUNNY     63  50  63 SW5       30.31S
JUNEAU         SUNNY     59  51  75 SW6       30.33R
$$

LSZ147-162-231600-
LAKE SUPERIOR

STATION/POSITION TIME  TEMP    WIND        PRES    WAVE
                       AIR SEA DIR/SP/G            HT/PER
                 (UTC) (F)     (DEG/KT/KT) (MB)    (FT/S)
W MID LAKE BUOY  1450   51 48  210/  6/  6 1023.2R   1/ 4
DEVILS ISLAND    1500   58     240/  8/  9 1023.5R
PORT WING        1400   60     180/  3/  4 1023.0S
SAXON HARBOR     1400   61     200/  7/  9 1023.4R
$$

LMZ867-665-643>646-231600-
LAKE MICHIGAN

STATION/POSITION TIME  TEMP    WIND        PRES    WAVE
                       AIR SEA DIR/SP/G            HT/PER
                 (UTC) (F)     (DEG/KT/KT) (MB)    (FT/S)
CHAMBERS ISLAND  1400   58     210/  6/  8 1024.7R
S GREEN BAY BUOY 1500   57                 1026.1R
N MID LAKE BUOY  1450   57 57  230/  8/ 10 1024.6R   2/ 4
NORTHPORT PIER   1400   62     270/  7/ 13 1023.7S
SISTER BAY       1412          280/ 10/ 11   N/A
ALGOMA LAKESHORE 1340          330/  8/ 11   N/A
KEWAUNEE LAKESHO 1400   60     280/  7/ 10 1024.1R
SHEBOYGAN LAKESH 1500   61 53  170/  4/  5 1026.4R
PORT WASHINGTON  1400   62     290/  7/  8 1026.4
ATWATER BUOY     1500   62     270/  4/  4 1027.6R
S MID LAKE BUOY  1450   61 61  230/ 10/ 12 1027.2R   2/ 3
KENOSHA   LAKESH 1500   63     250/ 10/ 11 1026.8S
$$

TC  - TEMPERATURE IN CELSIUS
VSB - VISIBILITY IN STATUTE MILES
WCI - WIND CHILL INDEX
HX  - HEAT INDEX



USA.gov is the U.S. government's official web portal to all federal, state and local government web resources and services.